[[{"header":{"parameterUnit":"m.s-1","parameterCategory":1,"la1":30.2991,"la2":30.254,"lo1":-89.0895,"lo2":-89.0444,"dy":0.0017,"dx":0.0017,"nx":28,"ny":28,"refTime":"2023-05-01T21:00:00:Z","depth":0,"parameterNumber":2,"parameterNumberName":"U-component_of_WINDS"},"data":[0,0,0,0,0,0,0,0,0,0,0,0,0,0,0,0,0,0,0,0,0,0,0,0,0,0,0,0,0,0,0,0,0,0,0,0,0,0,0,0,0,0,0,0,0,0,0,0,0,0,0,0,0,0,0,0,0,0,3.9568,3.9569,0,3.964,3.9641,3.9642,3.9642,3.9641,3.964,3.9639,3.9712,3.9714,3.9717,0,0,0,0,0,0,0,0,0,0,0,0,0,3.9433,3.9435,3.9568,3.9569,3.957,3.964,3.9641,3.9642,3.9642,3.9641,3.964,3.9639,3.9711,3.9714,3.9717,0,0,0,0,0,0,0,0,0,0,0,0,0,3.9497,3.9436,3.9568,3.9579,3.958,3.964,3.9641,3.9642,3.9642,3.9641,3.964,3.9638,3.971,3.9714,3.9718,3.9771,0,0,3.973,3.9732,0,0,0,0,0,0,0,0,3.9493,3.9502,3.9576,3.9578,3.958,3.9631,3.9619,3.9685,3.9643,3.9619,3.9639,3.9638,3.9686,3.9692,3.9708,3.9774,3.9777,3.9731,3.9733,3.9735,3.9736,0,0,0,0,0,0,0,3.9489,3.9498,3.9597,3.9577,3.958,3.958,3.9588,3.9632,3.9659,3.9621,3.9621,3.963,3.9686,3.9704,3.971,3.9778,3.9731,3.9734,3.9737,3.9739,3.9894,3.9896,0,0,0,0,0,0,3.9482,3.9495,3.9594,3.9599,3.9532,3.9584,3.9592,3.9616,3.9659,3.9664,3.9631,3.9629,3.9698,3.9705,3.9712,3.9778,3.9735,3.9739,3.9741,3.9893,3.9895,3.9896,0,0,0,0,0,0,3.9479,3.9491,3.9591,3.9547,3.956,3.9588,3.9614,3.9618,3.9635,3.9666,3.9671,3.9644,3.9697,3.9707,3.9757,3.9781,3.9741,3.9745,3.9891,3.9893,3.9896,3.991,0,0,0,0,0,0,3.9475,3.949,3.951,3.9547,3.9562,3.9634,3.9616,3.962,3.9643,3.9642,3.9679,3.9684,3.9697,3.9751,3.9761,3.9786,3.9748,3.9889,3.9892,3.9895,3.9907,3.9912,3.9917,0,0,0,0,0,3.947,3.951,3.9511,3.9523,3.9588,3.9636,3.9644,3.9657,3.9645,3.9665,3.9686,3.9683,3.9777,3.9756,3.9767,3.9794,3.9887,3.9891,3.9895,3.9905,3.9911,3.9917,0,0,0,0,0,0,3.9473,3.9515,3.9516,3.9569,3.9599,3.9635,3.9661,3.9663,3.9697,3.9694,3.971,3.9718,3.9769,3.9787,3.9762,3.9849,3.9831,3.9837,3.9835,3.9841,3.9846,3.9839,3.9751,0,0,0,0,0,3.948,3.9515,3.955,3.9594,3.9609,3.9633,3.9654,3.9663,3.9694,3.9706,3.973,3.976,3.9797,3.982,3.9855,3.9911,3.992,3.9935,3.994,3.9944,3.9948,3.998,3.9988,3.9909,3.9909,3.9908,0,0,3.9494,3.9521,3.9542,3.9595,3.9619,3.9656,3.9643,3.9682,3.971,3.9712,3.9761,3.978,3.9815,3.9869,3.9894,3.9885,3.9973,3.9948,3.9951,3.9954,3.9985,3.9993,3.9999,3.9911,3.9911,3.991,0,0,3.9538,3.9563,3.9602,3.9627,3.9665,3.9681,3.9691,3.9728,3.9741,3.9791,3.9794,3.9828,3.989,3.9915,3.9936,3.9995,3.9994,4.0006,4.003,4.0062,4.0068,4.0074,4.0095,4.0102,4.0011,4.0011,4.0011,0,3.955,3.9606,3.9622,3.9662,3.9685,3.9691,3.9732,3.9756,3.9802,3.9819,3.9809,3.9889,3.9913,3.9973,3.9988,4.0005,4.0017,4.0001,4.0066,4.0072,4.0077,4.0097,4.0105,4.0013,4.0012,4.0012,4.0012,0,3.962,3.9659,3.9686,3.9733,3.976,3.98,3.9822,3.9848,3.9855,3.9873,3.9925,3.9955,3.9997,4.0013,4.0019,4.0075,4.0069,4.0063,4.0044,4.0086,4.0105,4.0113,4.0014,4.0014,4.0013,4.0013,0,0,3.9663,3.9721,3.9731,3.9753,3.9797,3.9827,3.9869,3.9911,3.9933,3.9966,4.0001,4.0056,4.0052,4.0076,4.0086,4.0114,4.0159,4.0105,4.0106,4.0113,4.0223,4.0226,4.0235,4.016,4.0162,4.0163,4.022,0,3.9712,3.9785,3.9803,3.9866,3.9903,3.9911,3.9948,3.9979,3.9998,4.0032,4.0053,4.0091,4.0082,4.0097,4.0125,4.0148,4.0181,4.0144,4.0193,4.0194,4.0182,4.0245,4.0248,4.0299,4.0228,4.0229,4.023,0,3.9777,3.9814,3.9881,3.9922,3.9938,3.997,4.0012,4.0045,4.0081,4.0093,4.0122,4.013,4.0175,4.0156,4.0218,4.0193,4.0215,4.0229,4.0232,4.0235,4.0213,4.0249,4.0316,4.0324,4.0242,4.0241,4.024,0,3.9802,3.9868,3.9917,3.9936,3.9985,4.0008,4.003,4.0065,4.009,4.0127,4.0144,4.0185,4.0207,4.024,4.026,4.0244,4.032,4.0303,4.0331,4.0331,4.0345,4.0343,4.0415,4.0361,4.0361,4.0361,4.0361,0,3.9853,3.9894,3.9929,3.9959,4.0006,4.0027,4.0072,4.0094,4.0126,4.0161,4.0172,4.0204,4.0229,4.0266,4.0282,4.0331,4.0341,4.0352,4.0356,4.035,4.0349,4.0363,4.0359,4.0363,4.0363,4.0362,4.0362,0,3.9888,3.9913,3.9967,4.0011,4.0023,4.0055,4.0093,4.0123,4.0143,4.0188,4.0199,4.0231,4.0275,4.0299,4.0354,4.0365,4.042,4.0422,4.0407,4.0409,4.0435,4.0432,4.0517,4.053,4.0469,4.0469,4.047,0,3.9917,3.9949,3.9997,4.0022,4.0044,4.0084,4.011,4.0134,4.0161,4.0207,4.0231,4.0276,4.0313,4.0383,4.0411,4.0454,4.0456,4.0484,4.0462,4.0457,4.0456,4.0453,4.0457,4.0486,4.0487,4.0487,4.0488,0,3.9968,3.998,4.0018,4.0062,4.0093,4.0128,4.0163,4.0183,4.0212,4.0242,4.0288,4.0317,4.0374,4.0418,4.0464,4.0487,4.0492,4.0495,4.0503,4.0497,4.0487,4.0492,4.0416,4.0492,4.0491,4.0491,4.0491,4.0491,4.0001,4.003,4.0069,4.0112,4.0141,4.0174,4.0205,4.0231,4.0269,4.0318,4.033,4.0378,4.0416,4.0478,4.0503,4.0541,4.0536,4.0548,4.0551,4.0554,4.0554,4.0483,4.055,4.055,4.055,4.055,4.055,0,4.0051,4.0078,4.0117,4.0166,4.02,4.0205,4.0245,4.0273,4.0315,4.0351,4.0388,4.0441,4.0485,4.0519,4.0564,4.0589,4.0593,4.06,4.0597,4.0603,4.0557,4.0544,4.0596,4.0596,4.0596,4.0596,4.0596,4.0596,4.0081,4.0131,4.0149,4.0214,4.024,4.0288,4.0311,4.0342,4.037,4.043,4.0467,4.0489,4.0525,4.0573,4.0614,4.0623,4.0639,4.0646,4.0655,4.0611,4.0606,4.0601,4.0589,4.0649,4.0649,4.0697,4.0698,4.0698]},{"header":{"parameterUnit":"m.s-1","parameterCategory":1,"la1":30.2991,"la2":30.254,"lo1":-89.0895,"lo2":-89.0444,"dy":0.0017,"dx":0.0017,"nx":28,"ny":28,"refTime":"2023-05-01T21:00:00:Z","depth":0,"parameterNumber":3,"parameterNumberName":"V-component_of_WINDS"},"data":[0,0,0,0,0,0,0,0,0,0,0,0,0,0,0,0,0,0,0,0,0,0,0,0,0,0,0,0,0,0,0,0,0,0,0,0,0,0,0,0,0,0,0,0,0,0,0,0,0,0,0,0,0,0,0,0,0,0,2.3155,2.3158,0,2.3393,2.3395,2.3398,2.3449,2.3447,2.3446,2.3444,2.3689,2.3697,2.3705,0,0,0,0,0,0,0,0,0,0,0,0,0,2.2746,2.2753,2.3155,2.3158,2.3161,2.3392,2.3395,2.3399,2.3449,2.3447,2.3445,2.3443,2.3687,2.3696,2.3706,0,0,0,0,0,0,0,0,0,0,0,0,0,2.2948,2.2756,2.3154,2.3214,2.3222,2.3392,2.3396,2.34,2.345,2.3447,2.3445,2.3442,2.3683,2.3695,2.3707,2.3835,0,0,2.3745,2.375,0,0,0,0,0,0,0,0,2.2936,2.2963,2.3202,2.321,2.3219,2.3388,2.3341,2.3546,2.345,2.3363,2.3444,2.3441,2.3591,2.3611,2.3662,2.3847,2.3857,2.3746,2.3753,2.3759,2.3762,0,0,0,0,0,0,0,2.2922,2.2953,2.3249,2.3205,2.3216,2.3229,2.3255,2.338,2.3489,2.3371,2.3375,2.3402,2.3596,2.365,2.3668,2.3861,2.3746,2.3756,2.3764,2.3769,2.4163,2.4166,0,0,0,0,0,0,2.2898,2.2941,2.3241,2.3256,2.3068,2.3239,2.3267,2.3337,2.3488,2.3508,2.3404,2.3404,2.363,2.3653,2.3676,2.3836,2.3758,2.377,2.3777,2.416,2.4163,2.4167,0,0,0,0,0,0,2.2889,2.2924,2.3232,2.31,2.314,2.3248,2.3326,2.3343,2.3397,2.3513,2.3533,2.3439,2.3629,2.3659,2.3795,2.3845,2.3775,2.3787,2.4156,2.4161,2.4165,2.4155,0,0,0,0,0,0,2.2877,2.292,2.297,2.31,2.3147,2.3346,2.3329,2.3349,2.3418,2.3419,2.3551,2.3571,2.3629,2.3777,2.3807,2.386,2.3796,2.4152,2.4158,2.4164,2.4151,2.4159,2.4165,0,0,0,0,0,2.2862,2.2958,2.2972,2.3008,2.3211,2.3349,2.3375,2.344,2.3421,2.3472,2.3547,2.3567,2.3834,2.379,2.3825,2.3883,2.4149,2.4156,2.4163,2.4148,2.4157,2.4165,0,0,0,0,0,0,2.2831,2.2976,2.2993,2.3135,2.3229,2.3357,2.3423,2.3447,2.355,2.3547,2.3623,2.3653,2.3784,2.3847,2.3795,2.4014,2.3991,2.4005,2.3968,2.3977,2.3984,2.3966,2.3806,0,0,0,0,0,2.2841,2.294,2.3062,2.3175,2.3221,2.3314,2.3376,2.3418,2.3519,2.3559,2.3644,2.3742,2.3848,2.3916,2.4021,2.4161,2.419,2.4218,2.4224,2.423,2.4241,2.4319,2.4332,2.419,2.419,2.419,0,0,2.2862,2.2953,2.3012,2.3171,2.3249,2.335,2.3347,2.3455,2.3531,2.3576,2.3709,2.3775,2.3889,2.4027,2.4092,2.4084,2.4287,2.4238,2.4242,2.4251,2.4327,2.4341,2.4353,2.4195,2.4194,2.4193,0,0,2.2951,2.3031,2.3133,2.3211,2.3329,2.339,2.3414,2.3539,2.3584,2.3719,2.3754,2.3846,2.4028,2.4107,2.4171,2.4291,2.4312,2.4323,2.4358,2.4433,2.4444,2.4455,2.4496,2.4511,2.4334,2.4334,2.4334,0,2.2962,2.3116,2.3183,2.3289,2.3358,2.3402,2.3506,2.3579,2.3725,2.3772,2.376,2.3988,2.4068,2.4225,2.4254,2.4305,2.4335,2.4308,2.4437,2.4448,2.4459,2.45,2.4515,2.4334,2.4334,2.4334,2.4334,0,2.3124,2.323,2.3299,2.3437,2.3514,2.3619,2.3701,2.3771,2.3806,2.3868,2.4004,2.4102,2.4226,2.4267,2.4302,2.4429,2.442,2.4422,2.44,2.4472,2.4511,2.4527,2.4335,2.4334,2.4334,2.4334,0,0,2.32,2.3374,2.3398,2.3461,2.3594,2.3678,2.3785,2.3906,2.3964,2.4063,2.4154,2.4306,2.4309,2.4381,2.4426,2.4492,2.4579,2.4487,2.449,2.4499,2.4724,2.472,2.4737,2.4595,2.4598,2.4601,2.4714,0,2.3305,2.3496,2.3559,2.3718,2.3816,2.386,2.3953,2.4045,2.4106,2.4199,2.4267,2.4373,2.4369,2.4413,2.448,2.4554,2.4625,2.4547,2.468,2.4684,2.4649,2.4758,2.4756,2.4858,2.473,2.4733,2.4734,0,2.3453,2.3553,2.3722,2.3842,2.3886,2.3968,2.4083,2.4172,2.4277,2.4317,2.4397,2.4437,2.455,2.4522,2.4678,2.4624,2.4682,2.4727,2.4732,2.4746,2.4713,2.4774,2.4892,2.4907,2.476,2.4758,2.4756,0,2.349,2.3668,2.3791,2.3844,2.3988,2.4045,2.4107,2.421,2.4278,2.4379,2.4424,2.4538,2.4599,2.4686,2.4755,2.4728,2.4905,2.4883,2.4941,2.4939,2.4976,2.4972,2.5103,2.5015,2.5014,2.5014,2.5014,0,2.36,2.3701,2.381,2.3886,2.4,2.4072,2.4183,2.4248,2.4339,2.4428,2.4474,2.4557,2.4643,2.4738,2.4793,2.4913,2.4941,2.4976,2.4989,2.4972,2.4967,2.501,2.5004,2.5018,2.5017,2.5016,2.5016,0,2.366,2.3738,2.3875,2.3999,2.4033,2.4112,2.4219,2.4294,2.4357,2.4469,2.45,2.4598,2.4712,2.4789,2.4935,2.4972,2.5102,2.5115,2.5066,2.5073,2.5126,2.5119,2.5288,2.5313,2.5208,2.5209,2.521,0,2.3725,2.3803,2.3936,2.3999,2.4061,2.4162,2.4232,2.4306,2.4377,2.4502,2.4562,2.4678,2.4775,2.4954,2.5039,2.515,2.5165,2.5217,2.5182,2.5162,2.5165,2.5159,2.5167,2.5222,2.5222,2.5223,2.5224,0,2.383,2.3864,2.3963,2.4075,2.4157,2.4249,2.4342,2.439,2.4481,2.4558,2.4674,2.4749,2.4897,2.5012,2.5131,2.5196,2.5225,2.5234,2.5253,2.5235,2.5203,2.522,2.508,2.523,2.5229,2.5229,2.5228,2.5228,2.3894,2.3965,2.407,2.4178,2.4255,2.4341,2.4417,2.4489,2.4587,2.4713,2.4751,2.4872,2.4975,2.5138,2.5205,2.53,2.5296,2.5323,2.533,2.5336,2.5335,2.5189,2.5322,2.5322,2.5322,2.5322,2.5322,0,2.4,2.407,2.4169,2.4296,2.4382,2.4401,2.4505,2.4574,2.468,2.4773,2.4867,2.5001,2.5112,2.5205,2.532,2.5379,2.5395,2.5406,2.5402,2.5417,2.5333,2.5304,2.5391,2.5391,2.5391,2.5391,2.5391,2.5391,2.4066,2.4188,2.4234,2.4395,2.4464,2.4582,2.4639,2.4718,2.4793,2.4939,2.5032,2.5092,2.5186,2.5308,2.5411,2.5435,2.5475,2.5483,2.5511,2.5431,2.5423,2.5415,2.5388,2.5492,2.5492,2.5587,2.5587,2.5588]}]]